Time,TemperatureF,DewpointF,PressureIn,WindDirection,WindDirectionDegrees,WindSpeedMPH,WindSpeedGustMPH,Humidity,HourlyPrecipIn,Conditions,Clouds,dailyrainin,SoftwareType,DateUTC
2014-02-11 00:10:00,14.9,12.0,30.07,SE,144,0.0,0.0,86,0.00,,,0.00,weatherlink.com 1.10,2014-02-11 07:10:00,
2014-02-11 00:25:00,14.5,11.0,30.08,SE,144,0.0,0.0,86,0.00,,,0.00,weatherlink.com 1.10,2014-02-11 07:25:00,
2014-02-11 00:40:00,14.6,11.0,30.09,SE,144,0.0,0.0,85,0.00,,,0.00,weatherlink.com 1.10,2014-02-11 07:40:00,
2014-02-11 01:10:00,11.5,8.0,30.10,SSE,155,0.0,2.0,87,0.00,,,0.00,weatherlink.com 1.10,2014-02-11 08:10:00,
2014-02-11 01:25:00,12.6,10.0,30.10,SSE,162,0.0,0.0,87,0.00,,,0.00,weatherlink.com 1.10,2014-02-11 08:25:00,
2014-02-11 01:42:00,13.3,10.0,30.10,SSE,162,0.0,1.0,87,0.00,,,0.00,weatherlink.com 1.10,2014-02-11 08:42:00,
2014-02-11 01:55:00,13.1,10.0,30.11,SSE,162,0.0,0.0,86,0.00,,,0.00,weatherlink.com 1.10,2014-02-11 08:55:00,
2014-02-11 02:10:00,13.4,10.0,30.10,SSE,161,0.0,0.0,85,0.00,,,0.00,weatherlink.com 1.10,2014-02-11 09:10:00,
2014-02-11 02:25:00,13.4,9.0,30.11,SSE,152,1.0,2.0,84,0.00,,,0.00,weatherlink.com 1.10,2014-02-11 09:25:00,
2014-02-11 02:40:00,13.4,9.0,30.11,SSE,153,0.0,0.0,83,0.00,,,0.00,weatherlink.com 1.10,2014-02-11 09:40:00,
2014-02-11 02:55:00,13.3,9.0,30.10,SSE,153,0.0,0.0,82,0.00,,,0.00,weatherlink.com 1.10,2014-02-11 09:55:00,
2014-02-11 03:10:00,13.5,8.0,30.10,SSE,153,0.0,0.0,80,0.00,,,0.00,weatherlink.com 1.10,2014-02-11 10:10:00,
2014-02-11 03:25:00,13.3,8.0,30.09,SSE,153,0.0,0.0,79,0.00,,,0.00,weatherlink.com 1.10,2014-02-11 10:25:00,
2014-02-11 03:40:00,12.6,7.0,30.10,SSE,153,0.0,0.0,78,0.00,,,0.00,weatherlink.com 1.10,2014-02-11 10:40:00,
2014-02-11 03:55:00,11.8,6.0,30.10,SSE,153,0.0,0.0,78,0.00,,,0.00,weatherlink.com 1.10,2014-02-11 10:55:00,
2014-02-11 04:11:00,10.6,5.0,30.10,SSE,153,0.0,0.0,79,0.00,,,0.00,weatherlink.com 1.10,2014-02-11 11:11:00,
2014-02-11 04:26:00,10.1,5.0,30.10,SSE,153,0.0,0.0,81,0.00,,,0.00,weatherlink.com 1.10,2014-02-11 11:26:00,
2014-02-11 04:41:00,9.4,5.0,30.11,SSE,153,0.0,0.0,81,0.00,,,0.00,weatherlink.com 1.10,2014-02-11 11:41:00,
2014-02-11 04:56:00,8.1,4.0,30.12,SSE,153,0.0,0.0,82,0.00,,,0.00,weatherlink.com 1.10,2014-02-11 11:56:00,
2014-02-11 05:12:00,7.5,3.0,30.13,SSE,153,0.0,0.0,83,0.00,,,0.00,weatherlink.com 1.10,2014-02-11 12:12:00,
2014-02-11 05:28:00,6.9,3.0,30.13,SSE,153,0.0,1.0,84,0.00,,,0.00,weatherlink.com 1.10,2014-02-11 12:28:00,
2014-02-11 05:42:00,6.6,3.0,30.14,SSE,153,0.0,0.0,84,0.00,,,0.00,weatherlink.com 1.10,2014-02-11 12:42:00,
2014-02-11 05:57:00,6.5,3.0,30.14,SSE,153,0.0,0.0,84,0.00,,,0.00,weatherlink.com 1.10,2014-02-11 12:57:00,
2014-02-11 06:11:00,6.0,2.0,30.15,SSE,153,0.0,0.0,84,0.00,,,0.00,weatherlink.com 1.10,2014-02-11 13:11:00,
2014-02-11 06:26:00,5.7,2.0,30.15,SSE,153,0.0,0.0,85,0.00,,,0.00,weatherlink.com 1.10,2014-02-11 13:26:00,
2014-02-11 06:41:00,5.8,2.0,30.15,SSE,153,0.0,0.0,85,0.00,,,0.00,weatherlink.com 1.10,2014-02-11 13:41:00,
2014-02-11 06:56:00,5.2,1.0,30.16,SSE,153,0.0,0.0,84,0.00,,,0.00,weatherlink.com 1.10,2014-02-11 13:56:00,
2014-02-11 07:11:00,6.0,3.0,30.16,SSE,153,0.0,0.0,86,0.00,,,0.00,weatherlink.com 1.10,2014-02-11 14:11:00,
2014-02-11 07:26:00,8.0,5.0,30.16,SSE,153,0.0,0.0,87,0.00,,,0.00,weatherlink.com 1.10,2014-02-11 14:26:00,
2014-02-11 07:41:00,9.3,6.0,30.17,SSE,153,0.0,0.0,86,0.00,,,0.00,weatherlink.com 1.10,2014-02-11 14:41:00,
2014-02-11 07:56:00,11.5,8.0,30.18,SSE,153,0.0,0.0,86,0.00,,,0.00,weatherlink.com 1.10,2014-02-11 14:56:00,
2014-02-11 08:12:00,13.9,9.0,30.19,SSE,153,0.0,0.0,81,0.00,,,0.00,weatherlink.com 1.10,2014-02-11 15:12:00,
2014-02-11 08:27:00,16.2,9.0,30.20,WSW,258,0.0,5.0,74,0.00,,,0.00,weatherlink.com 1.10,2014-02-11 15:27:00,
2014-02-11 08:42:00,18.0,9.0,30.19,WSW,258,0.0,0.0,67,0.00,,,0.00,weatherlink.com 1.10,2014-02-11 15:42:00,
2014-02-11 08:57:00,18.4,8.0,30.19,WSW,258,0.0,2.0,65,0.00,,,0.00,weatherlink.com 1.10,2014-02-11 15:57:00,
2014-02-11 09:13:00,19.7,8.0,30.19,WSW,258,0.0,0.0,61,0.00,,,0.00,weatherlink.com 1.10,2014-02-11 16:13:00,
2014-02-11 09:27:00,20.9,8.0,30.19,ESE,110,0.0,3.0,58,0.01,,,0.01,weatherlink.com 1.10,2014-02-11 16:27:00,
2014-02-11 09:42:00,21.7,7.0,30.19,ESE,109,0.0,1.0,53,0.01,,,0.01,weatherlink.com 1.10,2014-02-11 16:42:00,
2014-02-11 09:57:00,22.6,7.0,30.19,NE,44,0.0,2.0,51,0.01,,,0.01,weatherlink.com 1.10,2014-02-11 16:57:00,
2014-02-11 10:12:00,24.6,7.0,30.20,NE,44,0.0,0.0,47,0.01,,,0.01,weatherlink.com 1.10,2014-02-11 17:12:00,
2014-02-11 10:27:00,25.5,9.0,30.20,NE,44,0.0,0.0,49,0.00,,,0.01,weatherlink.com 1.10,2014-02-11 17:27:00,
2014-02-11 10:42:00,25.4,7.0,30.20,NE,44,0.0,0.0,46,0.00,,,0.01,weatherlink.com 1.10,2014-02-11 17:42:00,
2014-02-11 10:57:00,27.8,6.0,30.19,SE,132,1.0,6.0,39,0.00,,,0.01,weatherlink.com 1.10,2014-02-11 17:57:00,
2014-02-11 11:12:00,29.1,5.0,30.18,SSW,192,1.0,7.0,36,0.00,,,0.01,weatherlink.com 1.10,2014-02-11 18:12:00,
2014-02-11 11:27:00,29.6,8.0,30.17,SSE,167,0.0,5.0,40,0.00,,,0.01,weatherlink.com 1.10,2014-02-11 18:27:00,
2014-02-11 11:43:00,31.0,6.0,30.16,West,260,0.0,9.0,35,0.00,,,0.01,weatherlink.com 1.10,2014-02-11 18:43:00,
2014-02-11 11:58:00,30.6,5.0,30.15,WNW,282,0.0,7.0,34,0.00,,,0.01,weatherlink.com 1.10,2014-02-11 18:58:00,
2014-02-11 12:13:00,30.8,6.0,30.13,SW,217,0.0,6.0,35,0.00,,,0.01,weatherlink.com 1.10,2014-02-11 19:13:00,
2014-02-11 12:28:00,31.4,5.0,30.12,South,182,0.0,7.0,33,0.00,,,0.01,weatherlink.com 1.10,2014-02-11 19:28:00,
2014-02-11 12:43:00,31.2,7.0,30.11,SW,225,0.0,8.0,36,0.00,,,0.01,weatherlink.com 1.10,2014-02-11 19:43:00,
2014-02-11 12:58:00,32.6,6.0,30.11,SSE,157,0.0,7.0,33,0.00,,,0.01,weatherlink.com 1.10,2014-02-11 19:58:00,
2014-02-11 13:13:00,33.3,7.0,30.11,SW,231,0.0,8.0,33,0.00,,,0.01,weatherlink.com 1.10,2014-02-11 20:13:00,
2014-02-11 13:28:00,33.0,8.0,30.10,West,259,3.0,6.0,35,0.00,,,0.01,weatherlink.com 1.10,2014-02-11 20:28:00,
2014-02-11 13:43:00,33.6,8.0,30.09,SW,233,0.0,11.0,34,0.00,,,0.01,weatherlink.com 1.10,2014-02-11 20:43:00,
2014-02-11 13:58:00,34.4,7.0,30.08,SSE,165,0.0,5.0,32,0.00,,,0.01,weatherlink.com 1.10,2014-02-11 20:58:00,
2014-02-11 14:13:00,35.2,7.0,30.07,ENE,59,0.0,4.0,30,0.00,,,0.01,weatherlink.com 1.10,2014-02-11 21:13:00,
2014-02-11 14:28:00,34.9,8.0,30.06,South,175,0.0,4.0,33,0.00,,,0.01,weatherlink.com 1.10,2014-02-11 21:28:00,
2014-02-11 14:43:00,34.7,6.0,30.05,SSW,208,2.0,10.0,30,0.01,,,0.02,weatherlink.com 1.10,2014-02-11 21:43:00,
2014-02-11 14:58:00,34.0,7.0,30.04,WSW,243,0.0,8.0,32,0.01,,,0.02,weatherlink.com 1.10,2014-02-11 21:58:00,
2014-02-11 15:13:00,32.8,5.0,30.04,SW,232,2.0,13.0,31,0.01,,,0.02,weatherlink.com 1.10,2014-02-11 22:13:00,
2014-02-11 15:28:00,31.5,5.0,30.02,West,259,2.0,18.0,33,0.01,,,0.02,weatherlink.com 1.10,2014-02-11 22:28:00,
2014-02-11 15:43:00,30.7,5.0,30.04,SSW,209,1.0,14.0,34,0.00,,,0.02,weatherlink.com 1.10,2014-02-11 22:43:00,
2014-02-11 15:58:00,29.8,4.0,30.04,WNW,290,3.0,12.0,34,0.00,,,0.02,weatherlink.com 1.10,2014-02-11 22:58:00,
2014-02-11 16:13:00,29.3,5.0,30.05,WSW,254,7.0,13.0,36,0.00,,,0.02,weatherlink.com 1.10,2014-02-11 23:13:00,
2014-02-11 16:28:00,28.8,5.0,30.06,West,259,0.0,10.0,37,0.00,,,0.02,weatherlink.com 1.10,2014-02-11 23:28:00,
2014-02-11 16:43:00,28.3,6.0,30.07,SSW,211,0.0,9.0,38,0.00,,,0.02,weatherlink.com 1.10,2014-02-11 23:43:00,
2014-02-11 16:58:00,27.8,5.0,30.08,South,174,0.0,9.0,38,0.00,,,0.02,weatherlink.com 1.10,2014-02-11 23:58:00,
2014-02-11 17:13:00,27.3,5.0,30.10,WSW,247,0.0,13.0,39,0.00,,,0.02,weatherlink.com 1.10,2014-02-12 00:13:00,
2014-02-11 17:28:00,26.7,5.0,30.10,West,265,0.0,15.0,40,0.00,,,0.02,weatherlink.com 1.10,2014-02-12 00:28:00,
2014-02-11 17:43:00,26.3,5.0,30.11,SSW,209,4.0,9.0,40,0.00,,,0.02,weatherlink.com 1.10,2014-02-12 00:43:00,
2014-02-11 17:58:00,25.7,5.0,30.11,SW,232,0.0,5.0,41,0.00,,,0.02,weatherlink.com 1.10,2014-02-12 00:58:00,
2014-02-11 18:13:00,25.0,5.0,30.12,West,264,0.0,6.0,42,0.00,,,0.02,weatherlink.com 1.10,2014-02-12 01:13:00,
2014-02-11 18:28:00,25.1,3.0,30.12,West,259,2.0,20.0,38,0.00,,,0.02,weatherlink.com 1.10,2014-02-12 01:28:00,
2014-02-11 18:43:00,25.4,3.0,30.12,SW,215,3.0,14.0,38,0.00,,,0.02,weatherlink.com 1.10,2014-02-12 01:43:00,
2014-02-11 18:58:00,24.4,4.0,30.12,WSW,241,1.0,9.0,41,0.00,,,0.02,weatherlink.com 1.10,2014-02-12 01:58:00,
2014-02-11 19:13:00,22.9,3.0,30.14,West,266,0.0,4.0,43,0.00,,,0.02,weatherlink.com 1.10,2014-02-12 02:13:00,
2014-02-11 19:28:00,21.8,3.0,30.14,West,280,0.0,6.0,45,0.00,,,0.02,weatherlink.com 1.10,2014-02-12 02:28:00,
2014-02-11 19:43:00,21.8,4.0,30.16,West,261,0.0,8.0,47,0.00,,,0.02,weatherlink.com 1.10,2014-02-12 02:43:00,
2014-02-11 19:58:00,22.0,4.0,30.16,West,259,0.0,5.0,46,0.00,,,0.02,weatherlink.com 1.10,2014-02-12 02:58:00,
2014-02-11 20:14:00,22.4,4.0,30.17,West,267,0.0,9.0,45,0.00,,,0.02,weatherlink.com 1.10,2014-02-12 03:14:00,
2014-02-11 20:29:00,22.5,5.0,30.17,WSW,242,0.0,5.0,47,0.00,,,0.02,weatherlink.com 1.10,2014-02-12 03:29:00,
2014-02-11 20:44:00,22.2,6.0,30.16,WSW,256,0.0,8.0,49,0.00,,,0.02,weatherlink.com 1.10,2014-02-12 03:44:00,
2014-02-11 20:59:00,22.0,6.0,30.16,WSW,254,0.0,6.0,51,0.00,,,0.02,weatherlink.com 1.10,2014-02-12 03:59:00,
2014-02-11 21:14:00,21.9,7.0,30.17,WSW,244,0.0,10.0,52,0.00,,,0.02,weatherlink.com 1.10,2014-02-12 04:14:00,
2014-02-11 21:29:00,21.6,7.0,30.18,WSW,250,0.0,8.0,53,0.00,,,0.02,weatherlink.com 1.10,2014-02-12 04:29:00,
2014-02-11 21:44:00,21.1,7.0,30.18,WSW,246,0.0,5.0,54,0.00,,,0.02,weatherlink.com 1.10,2014-02-12 04:44:00,
2014-02-11 21:59:00,20.6,7.0,30.19,SW,225,0.0,2.0,56,0.00,,,0.02,weatherlink.com 1.10,2014-02-12 04:59:00,
2014-02-11 22:14:00,20.3,8.0,30.19,WSW,237,0.0,4.0,58,0.00,,,0.02,weatherlink.com 1.10,2014-02-12 05:14:00,
2014-02-11 22:29:00,20.0,8.0,30.19,SSE,167,0.0,1.0,59,0.00,,,0.02,weatherlink.com 1.10,2014-02-12 05:29:00,
2014-02-11 22:44:00,19.3,8.0,30.21,WSW,245,0.0,5.0,61,0.00,,,0.02,weatherlink.com 1.10,2014-02-12 05:44:00,
2014-02-11 22:59:00,19.4,7.0,30.21,NW,319,0.0,1.0,60,0.00,,,0.02,weatherlink.com 1.10,2014-02-12 05:59:00,
2014-02-11 23:14:00,18.4,7.0,30.21,WSW,249,0.0,0.0,60,0.00,,,0.02,weatherlink.com 1.10,2014-02-12 06:14:00,
2014-02-11 23:29:00,17.6,6.0,30.21,WSW,248,0.0,0.0,61,0.00,,,0.02,weatherlink.com 1.10,2014-02-12 06:29:00,
2014-02-11 23:44:00,18.5,7.0,30.22,WSW,252,0.0,0.0,60,0.00,,,0.02,weatherlink.com 1.10,2014-02-12 06:44:00,